Regional Weather Roundup
Issued by NWS Burlington, VT

Home | Current Version | Previous Version | Text Only | Print | Product List | Glossary On
Versions: 1 2 3 4 5 6 7 8 9 10 11 12 13 14 15 16 17 18 19 20 21 22 23 24 25 26 27 28 29 30 31 32 33 34 35 36 37 38 39 40 41 42 43 44 45 46 47 48 49 50
000
ASUS41 KBTV 270930
RWRBTV
VERMONT REGIONAL WEATHER ROUNDUP
NATIONAL WEATHER SERVICE BURLINGTON VT
500 AM EDT TUE JUN 27 2017

NOTE: "FAIR" INDICATES FEW OR NO CLOUDS BELOW 12,000 FEET WITH NO
SIGNIFICANT WEATHER AND/OR OBSTRUCTIONS TO VISIBILITY.

* THESE REPORTS ARE NOT UNDER NWS QUALITY CONTROL AND/OR DO NOT
  REPORT WEATHER SUCH AS PRECIPITATION AND FOG.

VTZ001>019-271000-
_____VERMONT_____


CITY           SKY/WX    TMP DP  RH WIND       PRES   REMARKS
BURLINGTON     FAIR      56  54  93 S7        29.96R
MONTPELIER     FAIR      52  52 100 SW5       30.01R
MORRISVILLE    FAIR      49  48  97 CALM      29.98R
ST. JOHNSBURY*   N/A     52  52 100 MISG      29.97R
LYNDONVILLE*   CLOUDY    52  51  97 CALM      30.00R
MIDDLEBURY*    FAIR      51  51  97 S3        29.98S
RUTLAND*       FAIR      53  51  93 SE6       29.99R
SPRINGFIELD    MOCLDY    54  52  93 CALM      29.99S
HIGHGATE*      MOCLDY    55  54  96 S6        29.95R
NEWPORT*       FAIR      51  49  93 CALM      29.97S
BENNINGTON     FAIR      52  50  93 CALM      29.99S
SUTTON*          N/A     52 N/A N/A MISG        N/A
ISLAND POND*     N/A     46 N/A N/A NW1         N/A
GALLUP MILLS*    N/A     46 N/A N/A MISG        N/A
UNION VILLAGE*   N/A     54 N/A N/A MISG        N/A
MT. MANSFIELD*   N/A     45 N/A N/A SW24        N/A

_____LAKE CHAMPLAIN_____


CITY           SKY/WX    TMP DP  RH WIND       PRES   REMARKS
BURTON ISLAND*   N/A     61  57  88 S13         N/A
COLCHESTER RF*   N/A     59  57  94 SW13        N/A
DIAMOND ISL*     N/A     59  55  88 S9          N/A

$$

NYZ007-026>031-035-052-083-087-271000-
_____NORTHERN NEW YORK_____


CITY           SKY/WX    TMP DP  RH WIND       PRES   REMARKS
SARANAC LAKE   FOG       38  38 100 CALM      29.95S VSB 1/4
MASSENA        FAIR      50  50 100 CALM      29.94S FOG
OGDENSBURG*    FAIR      52  51  97 CALM      29.93S
POTSDAM*       CLOUDY    54  54 100 SW5       29.94S
STARK FALLS*     N/A     54 N/A N/A S6          N/A
WATERTOWN      FAIR      53  53 100 VRB3      29.93R
FT DRUM        FAIR      52  50  92 SE6       29.93R
ALBANY         MOCLDY    56  54  93 S5        29.99R
GLENS FALLS    FOG       51  50  96 CALM      29.98R VSB 1/4

$$
NHZ002-005-011-271000-
_____NEW HAMPSHIRE_____


CITY           SKY/WX    TMP DP  RH WIND       PRES   REMARKS
LEBANON        MOCLDY    55  54  96 CALM      29.98S
KEENE          MOCLDY    56  54  93 CALM      29.99F
MT WASHINGTON  MOCLDY    40  38  95 W21         N/A  WCI  30
PLYMOUTH       MOCLDY    51  50  95 CALM      29.99S
WHITEFIELD     MOCLDY    47  44  90 NE3       29.96F

$$

_____REGIONAL QUEBEC LOCATIONS_____


CITY           SKY/WX    TMP DP  RH WIND       PRES   REMARKS
MONTREAL       MOCLDY    57  54  88 S6        29.93R
QUEBEC CITY    MOCLDY    48  43  81 N3        29.94F
SHERBROOKE     CLOUDY    48  46  93 E3        29.95R

_____REGIONAL ONTARIO LOCATIONS_____


CITY           SKY/WX    TMP DP  RH WIND       PRES   REMARKS
OTTAWA         FOG       52  52 100 S7        29.92R VSB 1

______KEY______
VSB  - VISIBILITY IN MILES
WCI  - WIND CHILL INDEX
HX   - HEAT INDEX
$$
NNNN




USA.gov is the U.S. government's official web portal to all federal, state and local government web resources and services.